Fort Atkinson, Wisconsin, United States (53538)
Lat: 42.93N, Lon: 88.84W
Wx Zone: WIZ064
Local Info
Past Weather Observations for Today

NOTE: This archive is for the closest National Weather Service station to Fort Atkinson. Information may differ from the station used for current weather conditions.

Click here for Long-term Archive

Time Weather Temperature Dewpoint Humidity Pressure Winds Precip Visibility
14:55
Clear
18°F / -8°C 1°F / -17°C 49% 30.24 in
(1024 mb)
NW 5.8 mph
(NW 9 kph)
- 10SM
14:35
Clear
18°F / -8°C °F / -18°C 45% 30.27 in
(1025 mb)
WNW 8.1 mph
(WNW 13 kph)
- 10SM
14:15
Clear
18°F / -8°C 1°F / -17°C 49% 30.27 in
(1025 mb)
WNW 5.8 mph
(WNW 9 kph)
- 10SM
13:55
Clear
16°F / -9°C 1°F / -17°C 53% 30.27 in
(1025 mb)
NW 8.1 mph
(NW 13 kph)
- 10SM
13:35
Clear
16°F / -9°C 1°F / -17°C 53% 30.27 in
(1025 mb)
W 5.8 mph
(W 9 kph)
- 10SM
13:15
Clear
16°F / -9°C 1°F / -17°C 53% 30.3 in
(1026 mb)
W 9.2 mph
(W 15 kph)
- 10SM
12:55
Clear
16°F / -9°C 1°F / -17°C 53% 30.3 in
(1026 mb)
NW 6.9 mph
(NW 11 kph)
- 10SM
12:35
Clear
14°F / -10°C 1°F / -17°C 57% 30.3 in
(1026 mb)
W 6.9 mph
(W 11 kph)
- 10SM
12:15
Clear
14°F / -10°C 1°F / -17°C 57% 30.3 in
(1026 mb)
W 8.1 mph
(W 13 kph)
- 10SM
11:55
Clear
14°F / -10°C 1°F / -17°C 57% 30.3 in
(1026 mb)
NW 6.9 mph
(NW 11 kph)
- 10SM
11:35
Clear
14°F / -10°C 3°F / -16°C 62% 30.3 in
(1026 mb)
NW 5.8 mph
(NW 9 kph)
- 10SM
11:15
Clear
12°F / -11°C 1°F / -17°C 62% 30.3 in
(1026 mb)
NW 8.1 mph
(NW 13 kph)
- 10SM
10:55
Clear
12°F / -11°C 1°F / -17°C 62% 30.3 in
(1026 mb)
NW 8.1 mph
(NW 13 kph)
- 10SM
10:35
Clear
10°F / -12°C °F / -18°C 61% 30.3 in
(1026 mb)
NW 8.1 mph
(NW 13 kph)
- 10SM
10:15
Clear
10°F / -12°C °F / -18°C 61% 30.3 in
(1026 mb)
WNW 8.1 mph
(WNW 13 kph)
- 10SM
09:55
Clear
10°F / -12°C 1°F / -17°C 67% 30.3 in
(1026 mb)
NW 5.8 mph
(NW 9 kph)
- 10SM
09:35
Clear
9°F / -13°C °F / -18°C 66% 30.3 in
(1026 mb)
NW 6.9 mph
(NW 11 kph)
- 10SM
09:15
Clear
9°F / -13°C °F / -18°C 66% 30.3 in
(1026 mb)
NNW 8.1 mph
(NNW 13 kph)
- 10SM
08:55
Clear
7°F / -14°C -2°F / -19°C 66% 30.3 in
(1026 mb)
NW 5.8 mph
(NW 9 kph)
- 10SM
08:35
Clear
5°F / -15°C -2°F / -19°C 72% 30.3 in
(1026 mb)
WNW 8.1 mph
(WNW 13 kph)
- 10SM
08:15
Clear
5°F / -15°C -2°F / -19°C 72% 30.27 in
(1025 mb)
NW 5.8 mph
(NW 9 kph)
- 10SM
07:55
Clear
3°F / -16°C -2°F / -19°C 78% 30.3 in
(1026 mb)
W 4.6 mph
(W 7 kph)
- 10SM
07:35
Clear
3°F / -16°C -4°F / -20°C 72% 30.27 in
(1025 mb)
WNW 4.6 mph
(WNW 7 kph)
- 10SM
07:15
Clear
1°F / -17°C -4°F / -20°C 78% 30.27 in
(1025 mb)
NW 3.5 mph
(NW 6 kph)
- 10SM
06:55
Clear
1°F / -17°C -4°F / -20°C 78% 30.27 in
(1025 mb)
NW 3.5 mph
(NW 6 kph)
- 10SM
06:35
Clear
1°F / -17°C -4°F / -20°C 78% 30.27 in
(1025 mb)
NW 3.5 mph
(NW 6 kph)
- 10SM
06:15
Clear
1°F / -17°C -4°F / -20°C 78% 30.27 in
(1025 mb)
NW 3.5 mph
(NW 6 kph)
- 10SM
05:55
Clear
1°F / -17°C -4°F / -20°C 78% 30.24 in
(1024 mb)
NNW 5.8 mph
(NNW 9 kph)
- 10SM
05:35
Clear
1°F / -17°C -4°F / -20°C 78% 30.24 in
(1024 mb)
NNW 5.8 mph
(NNW 9 kph)
- 10SM
05:15
Clear
3°F / -16°C -4°F / -20°C 72% 30.24 in
(1024 mb)
NNW 4.6 mph
(NNW 7 kph)
- 10SM
04:55
Clear
3°F / -16°C -4°F / -20°C 72% 30.24 in
(1024 mb)
NW 3.5 mph
(NW 6 kph)
- 10SM
04:35
Clear
3°F / -16°C -4°F / -20°C 72% 30.21 in
(1023 mb)
N 3.5 mph
(N 6 kph)
- 10SM
04:15
Clear
3°F / -16°C -4°F / -20°C 72% 30.21 in
(1023 mb)
NW 5.8 mph
(NW 9 kph)
- 10SM
03:55
Clear
3°F / -16°C -4°F / -20°C 72% 30.21 in
(1023 mb)
NNW 4.6 mph
(NNW 7 kph)
- 10SM
03:35
Clear
3°F / -16°C -2°F / -19°C 78% 30.21 in
(1023 mb)
NNW 3.5 mph
(NNW 6 kph)
- 10SM
03:15
Clear
3°F / -16°C -4°F / -20°C 72% 30.21 in
(1023 mb)
NW 3.5 mph
(NW 6 kph)
- 10SM
02:55
Clear
3°F / -16°C -2°F / -19°C 78% 30.21 in
(1023 mb)
NW 4.6 mph
(NW 7 kph)
- 10SM
02:35
Clear
3°F / -16°C -2°F / -19°C 78% 30.21 in
(1023 mb)
NW 4.6 mph
(NW 7 kph)
- 10SM
02:15
Clear
5°F / -15°C -2°F / -19°C 72% 30.21 in
(1023 mb)
NW 3.5 mph
(NW 6 kph)
- 10SM
01:55
Clear
5°F / -15°C -2°F / -19°C 72% 30.18 in
(1022 mb)
NW 3.5 mph
(NW 6 kph)
- 10SM
01:35
Clear
5°F / -15°C -2°F / -19°C 72% 30.18 in
(1022 mb)
N 4.6 mph
(N 7 kph)
- 10SM
01:15
Clear
5°F / -15°C -2°F / -19°C 72% 30.18 in
(1022 mb)
NNW 5.8 mph
(NNW 9 kph)
- 10SM
00:55
Clear
5°F / -15°C -2°F / -19°C 72% 30.18 in
(1022 mb)
NNW 5.8 mph
(NNW 9 kph)
- 10SM
00:35
Clear
7°F / -14°C -2°F / -19°C 66% 30.18 in
(1022 mb)
NNW 5.8 mph
(NNW 9 kph)
- 10SM
00:15
Clear
7°F / -14°C -2°F / -19°C 66% 30.18 in
(1022 mb)
NNW 5.8 mph
(NNW 9 kph)
- 10SM
Time Weather Temperature Dewpoint Humidity Pressure Winds Precip Visibility


Weather for websites

WeatherForYou.com, LLC is not responsible for any damages or problems caused by this service. Current weather conditions are obtained from the closest station including government and personal stations which may have varying degrees of accuracy. Weather forecasts are derived from the NOAA NDFD. Like all things, this site belongs to Jesus Christ... He just trusts us to maintain it. If you have any questions or comments email webmaster@weatherforyou.com

Copyright © 2016, WeatherForYou.com LLC. All rights reserved.